User: anonymous   Login
Location: Unspecified
(0.0000°N, 0.0000°E)
Time: 06:47:23
(UTC+02:00)
Language:

Cosmos 2263 Rocket - Orbit

View from above orbital plane
View from above orbital plane
View from above satellite
View from above satellite

Ground track
Ground track

The orbit data is extracted from the following two-line orbital elements,

1 22803U 93059B   17207.19900723 +.00000098 +00000-0 +72828-4 0  9997
2 22803 070.9899 167.2307 0018654 320.5355 039.4409 14.16777512233550
Epoch (UTC): 26 July 2017 04:46:34
Eccentricity: 0.0018654
inclination: 70.9899°
perigee height: 823 km
apogee height: 850 km
right ascension of ascending node: 167.2307°
argument of perigee: 320.5355°
revolutions per day: 14.16777512
mean anomaly at epoch: 39.4409°
orbit number at epoch: 23355

The dashed part of the orbit path shows where the satellite is in the earth's shadow,  

DLR